Starlink 11241

operational
NORAD ID: 60936 Int'l Des: 2024-155 Owner: SPXS Country: US Constellation: starlink
LEOCIRCULAR

Über Starlink 11241

Beschreibung wird geladen...

Live-Position

3D-Globus wird geladen...

Nächste Überflüge

Höhenverlauf

Altitude vs Time

uPlot chart will show altitude changes over time

Zweizeiliger Elementsatz

1 60936U 24155N 25259.01040613 -.00001998 00000-0 -11648-4 0 9992
2 60936 53.1583 122.6054 0001060 75.2936 284.8199 15.69694208 60962
Epoch: 16. Sept. 2025 • Age: 32 hours

Aktueller Status

Höhe 360.6 km
Geschwindigkeit 7.69 km/s
Subsatellitenpunkt 0.09°N, 5.54°W
Startdatum 31. Aug. 2024
Alter 1 years
Typ internet

Technische Details

Klassifizierung Payload
Masse 960.00 kg
Trockenmasse 910.00 kg
Gesamtmasse 960.00 kg
Länge 0.30 m
Durchmesser 4.10 m
Spannweite 29.00 m
Form Box + pan
Hersteller SPXS
Bus-Typ Starlink V2MD
Phasenstatus In Orbit
Besitzer/Staat SPXS/US

Große Konstellationen

Loading constellations...